| time (UTC) | temp F | wind direction | speed MPH | gust MPH | rain 1hr in | rain 24hr in | rain mn in | humidity % | barometer mb |
| 20260506210055 | 58 | 337 | 8.0 | 14.0 | 0.00 | 0.01 | 0.01 | 88 | 1017.3 |
| 20260506204553 | 57 | 355 | 8.0 | 14.0 | 0.00 | 0.01 | 0.01 | 88 | 1017.3 |
| 20260506203047 | 58 | 17 | 7.0 | 13.0 | 0.00 | 0.01 | 0.01 | 88 | 1017.5 |
| 20260506201553 | 58 | 336 | 9.0 | 15.0 | 0.00 | 0.01 | 0.01 | 89 | 1017.6 |
| 20260506200052 | 57 | 309 | 7.0 | 15.0 | 0.00 | 0.01 | 0.01 | 89 | 1017.3 |
| 20260506194555 | 57 | 338 | 8.0 | 14.0 | 0.00 | 0.01 | 0.01 | 89 | 1017.7 |
| 20260506193100 | 57 | 321 | 8.0 | 17.0 | 0.00 | 0.01 | 0.01 | 89 | 1017.8 |
| 20260506191551 | 57 | 5 | 9.0 | 14.0 | 0.00 | 0.01 | 0.01 | 89 | 1017.6 |
| 20260506190051 | 57 | 360 | 8.0 | 14.0 | 0.00 | 0.01 | 0.01 | 90 | 1017.9 |
| 20260506184549 | 56 | 325 | 7.0 | 14.0 | 0.00 | 0.01 | 0.01 | 90 | 1018.0 |
| 20260506183048 | 57 | 350 | 10.0 | 17.0 | 0.00 | 0.01 | 0.01 | 89 | 1017.9 |
| 20260506181549 | 56 | 5 | 10.0 | 15.0 | 0.00 | 0.01 | 0.01 | 91 | 1017.9 |
| 20260506180059 | 55 | 346 | 7.0 | 16.0 | 0.00 | 0.01 | 0.01 | 91 | 1017.9 |
| 20260506174550 | 55 | 11 | 10.0 | 17.0 | 0.00 | 0.01 | 0.01 | 90 | 1017.7 |
| 20260506173056 | 56 | 348 | 10.0 | 18.0 | 0.00 | 0.01 | 0.01 | 90 | 1017.6 |
| 20260506171550 | 56 | 339 | 9.0 | 19.0 | 0.00 | 0.01 | 0.01 | 91 | 1017.6 |
| 20260506170103 | 57 | 336 | 11.0 | 17.0 | 0.00 | 0.01 | 0.01 | 91 | 1017.5 |
| 20260506164556 | 56 | 5 | 8.0 | 13.0 | 0.00 | 0.01 | 0.01 | 93 | 1017.3 |
| 20260506163109 | 56 | 355 | 6.0 | 11.0 | 0.00 | 0.01 | 0.01 | 93 | 1017.4 |
| 20260506161548 | 55 | 13 | 6.0 | 11.0 | 0.00 | 0.01 | 0.01 | 94 | 1017.0 |
| 20260506160051 | 55 | 146 | 14.0 | 27.0 | 0.00 | 0.01 | 0.01 | 95 | 1016.5 |
| 20260506154608 | 54 | 108 | 12.0 | 23.0 | 0.01 | 0.01 | 0.01 | 95 | 1016.1 |
| 20260506153059 | 53 | 98 | 4.0 | 14.0 | 0.01 | 0.01 | 0.01 | 94 | 1016.7 |
| 20260506151557 | 53 | 323 | 6.0 | 12.0 | 0.01 | 0.01 | 0.01 | 95 | 1018.3 |
| 20260506150047 | 54 | 360 | 9.0 | 14.0 | 0.00 | 0.00 | 0.00 | 94 | 1017.7 |
| 20260506144549 | 55 | 19 | 9.0 | 18.0 | 0.00 | 0.00 | 0.00 | 94 | 1017.8 |
| 20260506143059 | 55 | 348 | 10.0 | 15.0 | 0.00 | 0.00 | 0.00 | 94 | 1017.5 |
| 20260506141550 | 57 | 360 | 12.0 | 20.0 | 0.00 | 0.00 | 0.00 | 91 | 1017.3 |
| 20260506140054 | 58 | 334 | 8.0 | 16.0 | 0.00 | 0.00 | 0.00 | 89 | 1017.1 |
| 20260506134553 | 59 | 321 | 9.0 | 17.0 | 0.00 | 0.00 | 0.00 | 89 | 1016.6 |
| 20260506133050 | 59 | 13 | 10.0 | 17.0 | 0.00 | 0.00 | 0.00 | 88 | 1015.3 |
| 20260506131554 | 60 | 26 | 6.0 | 18.0 | 0.00 | 0.00 | 0.00 | 88 | 1015.0 |
| 20260506130051 | 60 | 18 | 11.0 | 19.0 | 0.00 | 0.00 | 0.00 | 87 | 1015.0 |
| 20260506124549 | 61 | 5 | 9.0 | 19.0 | 0.00 | 0.00 | 0.00 | 86 | 1014.6 |
| 20260506123049 | 61 | 360 | 9.0 | 14.0 | 0.00 | 0.00 | 0.00 | 86 | 1014.2 |
| 20260506121547 | 62 | 5 | 8.0 | 12.0 | 0.00 | 0.00 | 0.00 | 85 | 1014.2 |
| 20260506120057 | 62 | 28 | 9.0 | 14.0 | 0.00 | 0.00 | 0.00 | 86 | 1013.9 |
| 20260506114558 | 63 | 5 | 7.0 | 12.0 | 0.00 | 0.00 | 0.00 | 85 | 1013.7 |
| 20260506113053 | 64 | 355 | 3.0 | 10.0 | 0.00 | 0.00 | 0.00 | 86 | 1014.0 |
| 20260506111548 | 64 | 42 | 4.0 | 11.0 | 0.00 | 0.00 | 0.00 | 86 | 1013.8 |
| 20260506110055 | 65 | 24 | 5.0 | 10.0 | 0.00 | 0.00 | 0.00 | 86 | 1013.8 |
| 20260506104550 | 65 | 12 | 7.0 | 15.0 | 0.00 | 0.00 | 0.00 | 86 | 1013.6 |
| 20260506103049 | 66 | 13 | 6.0 | 11.0 | 0.00 | 0.00 | 0.00 | 86 | 1013.3 |
| 20260506101551 | 67 | 22 | 4.0 | 9.0 | 0.00 | 0.00 | 0.00 | 88 | 1013.4 |
| 20260506100048 | 67 | 34 | 5.0 | 10.0 | 0.00 | 0.00 | 0.00 | 90 | 1013.4 |
| 20260506094610 | 68 | 15 | 6.0 | 11.0 | 0.00 | 0.00 | 0.00 | 90 | 1013.0 |
| 20260506093056 | 70 | 38 | 5.0 | 9.0 | 0.00 | 0.00 | 0.00 | 93 | 1012.7 |
| 20260506091556 | 72 | 62 | 3.0 | 5.0 | 0.00 | 0.00 | 0.00 | 92 | 1012.6 |
| 20260506090051 | 73 | 126 | 1.0 | 3.0 | 0.00 | 0.00 | 0.00 | 94 | 1012.8 |
| 20260506084554 | 73 | 126 | 2.0 | 4.0 | 0.00 | 0.00 | 0.00 | 94 | 1012.5 |
| 20260506083102 | 74 | 126 | 4.0 | 8.0 | 0.00 | 0.00 | 0.00 | 94 | 1012.4 |
| 20260506081551 | 74 | 132 | 4.0 | 6.0 | 0.00 | 0.00 | 0.00 | 94 | 1012.3 |
| 20260506073053 | 74 | 150 | 2.0 | 6.0 | 0.00 | 0.00 | 0.00 | 93 | 1012.6 |
| 20260506071549 | 74 | 199 | 1.0 | 3.0 | 0.00 | 0.00 | 0.00 | 92 | 1012.8 |
| 20260506061552 | 74 | 59 | 3.0 | 6.0 | 0.00 | 0.00 | 0.00 | 92 | 1012.5 |
| 20260506044550 | 74 | 173 | 2.0 | 9.0 | 0.00 | 0.00 | 0.00 | 90 | 1011.7 |
| 20260506043042 | 74 | 179 | 5.0 | 10.0 | 0.00 | 0.00 | 0.00 | 90 | 1011.6 |
| 20260506041550 | 74 | 156 | 5.0 | 10.0 | 0.00 | 0.00 | 0.00 | 90 | 1011.6 |
| 20260506040059 | 73 | 146 | 4.0 | 7.0 | 0.00 | 0.00 | 0.00 | 90 | 1011.7 |
| 20260506034558 | 73 | 148 | 4.0 | 6.0 | 0.00 | 0.00 | 0.00 | 90 | 1011.7 |
| 20260506033047 | 73 | 147 | 4.0 | 9.0 | 0.00 | 0.00 | 0.00 | 89 | 1011.3 |
| 20260506031557 | 73 | 158 | 7.0 | 10.0 | 0.00 | 0.00 | 0.00 | 89 | 1011.0 |
| 20260506030048 | 74 | 141 | 5.0 | 8.0 | 0.00 | 0.00 | 0.00 | 89 | 1011.1 |
| 20260506024543 | 74 | 126 | 4.0 | 7.0 | 0.00 | 0.00 | 0.00 | 87 | 1011.1 |
| 20260506023047 | 75 | 146 | 3.0 | 5.0 | 0.00 | 0.00 | 0.00 | 86 | 1010.8 |
| 20260506021543 | 76 | 153 | 4.0 | 6.0 | 0.00 | 0.00 | 0.00 | 85 | 1010.2 |
| 20260506020049 | 77 | 157 | 3.0 | 9.0 | 0.00 | 0.00 | 0.00 | 83 | 1010.2 |
| 20260506014549 | 78 | 166 | 4.0 | 9.0 | 0.00 | 0.00 | 0.00 | 82 | 1009.8 |
| 20260506013055 | 78 | 164 | 3.0 | 8.0 | 0.00 | 0.00 | 0.00 | 80 | 1009.6 |
| 20260506011556 | 79 | 159 | 4.0 | 8.0 | 0.00 | 0.00 | 0.00 | 79 | 1009.6 |
| 20260506010056 | 80 | 157 | 4.0 | 7.0 | 0.00 | 0.00 | 0.00 | 77 | 1009.3 |
| 20260506004553 | 81 | 177 | 4.0 | 10.0 | 0.00 | 0.00 | 0.00 | 75 | 1009.3 |
| 20260506003049 | 82 | 189 | 3.0 | 7.0 | 0.00 | 0.00 | 0.00 | 73 | 1009.2 |
| 20260506001549 | 83 | 159 | 2.0 | 11.0 | 0.00 | 0.00 | 0.00 | 71 | 1009.2 |
| 20260506000050 | 83 | 161 | 6.0 | 11.0 | 0.00 | 0.00 | 0.00 | 70 | 1009.3 |
| 20260505234559 | 84 | 176 | 4.0 | 10.0 | 0.00 | 0.00 | 0.00 | 68 | 1009.2 |
| 20260505233103 | 84 | 198 | 4.0 | 9.0 | 0.00 | 0.00 | 0.00 | 70 | 1009.3 |
| 20260505231555 | 86 | 184 | 2.0 | 9.0 | 0.00 | 0.00 | 0.00 | 66 | 1009.3 |
| 20260505230047 | 86 | 0 | 1.0 | 8.0 | 0.00 | 0.00 | 0.00 | 66 | 1009.2 |
| 20260505224549 | 87 | 178 | 2.0 | 8.0 | 0.00 | 0.00 | 0.00 | 64 | 1009.1 |
| 20260505223051 | 86 | 178 | 2.0 | 10.0 | 0.00 | 0.00 | 0.00 | 67 | 1009.3 |
| 20260505221549 | 85 | 163 | 5.0 | 12.0 | 0.00 | 0.00 | 0.00 | 67 | 1009.1 |
| 20260505220049 | 86 | 143 | 6.0 | 13.0 | 0.00 | 0.00 | 0.00 | 65 | 1009.3 |
| 20260505214550 | 86 | 192 | 3.0 | 10.0 | 0.00 | 0.00 | 0.00 | 66 | 1009.1 |
| 20260505213043 | 87 | 198 | 4.0 | 10.0 | 0.00 | 0.00 | 0.00 | 64 | 1009.3 |
| 20260505211547 | 86 | 205 | 4.0 | 9.0 | 0.00 | 0.00 | 0.00 | 68 | 1009.6 |